Regional Weather Roundup
Issued by NWS

Home | Current Version | Previous Version | Graphics & Text | Print | Product List | Glossary On
Versions: 1 2 3 4 5 6 7 8 9 10 11 12 13 14 15 16 17 18 19 20 21 22 23 24 25 26 27 28 29 30 31 32 33 34 35 36 37 38 39 40 41 42 43 44 45 46 47 48 49 50
000
ASUS43 KBIS 292120
RWRND

NORTH DAKOTA REGIONAL WEATHER ROUNDUP
NATIONAL WEATHER SERVICE BISMARCK ND
400 PM CDT SUN MAR 29 2015

NOTE: "FAIR" INDICATES FEW OR NO CLOUDS BELOW 12,000 FEET WITH NO
SIGNIFICANT WEATHER AND/OR OBSTRUCTIONS TO VISIBILITY.


NDZ001>003-009>011-017-292200-
NORTHWEST NORTH DAKOTA

CITY           SKY/WX    TMP DP  RH WIND       PRES   REMARKS
WILLISTON      PTSUNNY   60  32  34 W16G24    29.99F
MINOT          PTSUNNY   57  27  31 W23G32    29.95S
MINOT AFB      PTSUNNY   57  31  37 NW22G28   29.93F
$$

NDZ018>021-031>035-040>046-292200-
SOUTHWEST NORTH DAKOTA

CITY           SKY/WX    TMP DP  RH WIND       PRES   REMARKS
BISMARCK       SUNNY     59  26  28 NW16G26   30.00F
DICKINSON      SUNNY     59  28  30 NW17      30.01F
GARRISON         N/A     56  30  37 W23G33    29.97F
HETTINGER ARPT MOSUNNY   60  28  29 W22G33    30.05F
$$

NDZ004>008-012>016-024-026-027-054-292200-
NORTHEAST NORTH DAKOTA

CITY           SKY/WX    TMP DP  RH WIND       PRES   REMARKS
GRAND FORKS    PTSUNNY   55  28  35 NW25G31   29.86F
GRND FRKS AFB  MOSUNNY   55  25  32 N24G35    29.88R
DEVILS LAKE    PTSUNNY   54  30  40 NW21G26   29.89F
$$

NDZ022-023-025-028>030-036>039-047>053-292200-
SOUTHEAST NORTH DAKOTA

CITY           SKY/WX    TMP DP  RH WIND       PRES   REMARKS
FARGO          MOSUNNY   58  26  29 NW28G38   29.89R
JAMESTOWN      PTSUNNY   54  23  30 NW21      29.94S
$$



USA.gov is the U.S. government's official web portal to all federal, state and local government web resources and services.